User: anonymous   Login
Location: Caltech
(34.1382°N, 118.1253°W)
Time: 22:22:24
(UTC-07:00)
Language:

OAO 2 Rocket - Orbit

View from above orbital plane
View from above orbital plane
View from above satellite
View from above satellite

Ground track
Ground track

The orbit data is extracted from the following two-line orbital elements,

1  3598U 68110B   17086.92449976 +.00000135 +00000-0 +35544-4 0  9997
2  3598 034.9939 076.0888 0049771 288.2965 071.2317 14.54294085533733
Epoch (UTC): 27 March 2017 22:11:16
Eccentricity: 0.0049771
inclination: 34.9939°
perigee height: 676 km
apogee height: 747 km
right ascension of ascending node: 76.0888°
argument of perigee: 288.2965°
revolutions per day: 14.54294085
mean anomaly at epoch: 71.2317°
orbit number at epoch: 53373

The dashed part of the orbit path shows where the satellite is in the earth's shadow,  

DLR